Home   Weather   Mobile   Past weeks
Flag for USA

Past Weather in Mobile, Alabama, USA — Yesterday and Last 2 Weeks

Now
48 °F

Clear.


Feels Like: 47 °F
Forecast: 70 / 43 °F
Wind: 3 mph from West

Location: Mobile Downtown Airport

Current Time: Nov 19, 2019 at 1:36:35 am

Latest Report: Nov 19, 2019 at 12:53 am


Visibility: 10 mi

Pressure: 29.93 "Hg

Humidity: 89%

Dew Point: 45 °F

Location of MobileLocation

Past Weather in Mobile — Graph

°F

Mobile Temperature Yesterday

Maximum temperature yesterday: 68 °F (at 1:53 pm)
Minimum temperature yesterday: 42 °F (at 5:53 am)
Average temperature yesterday: 54 °F

High & Low Weather Summary for the Past Weeks

 TemperatureHumidityPressure
High81 °F (Nov 7, 12:53 pm)97% (Nov 6, 10:53 pm)30.35 "Hg (Nov 6, 10:53 pm)
Low30 °F (Nov 13, 1:53 am)29% (Nov 5, 1:53 pm)29.86 "Hg (Nov 18, 2:53 pm)
Average57 °F72%30.15 "Hg
* Reported Nov 3 11:53 pm — Nov 18 11:53 pm, Mobile. Weather by CustomWeather, © 2019

Note: Actual official high and low records may vary slightly from our data, if they occured in-between our weather recording intervals... More about our weather records

Advertising

Mobile Weather History for the Previous 24 Hours

Scroll right to see more
 ConditionsComfort  
Time TempWeatherWind HumidityBarometerVisibility
11:53 pm
Mon, Nov 18
50 °FClear.3 mph83%29.92 "Hg10 mi
10:53 pm50 °FClear.6 mph86%29.93 "Hg10 mi
9:53 pm50 °FClear.5 mph83%29.93 "Hg10 mi
8:53 pm48 °FClear.No wind86%29.93 "Hg10 mi
7:53 pm49 °FClear.5 mph86%29.90 "Hg10 mi
6:53 pm54 °FClear.5 mph72%29.90 "Hg10 mi
5:53 pm53 °FClear.3 mph77%29.88 "Hg10 mi
4:53 pm59 °FClear.No wind58%29.88 "Hg10 mi
3:53 pm66 °FSunny.5 mph40%29.86 "Hg10 mi
2:53 pm67 °FSunny.5 mph36%29.86 "Hg10 mi
1:53 pm68 °FSunny.6 mph36%29.87 "Hg10 mi
12:53 pm66 °FSunny.3 mph34%29.89 "Hg10 mi
11:53 am67 °FSunny.8 mph32%29.91 "Hg10 mi
10:53 am65 °FSunny.7 mph33%29.95 "Hg10 mi
10:36 am65 °FSunny.9 mph33%29.96 "Hg10 mi
9:53 am63 °FSunny.7 mph35%29.96 "Hg10 mi
8:53 am58 °FSunny.3 mph47%29.97 "Hg10 mi
7:53 am52 °FSunny.3 mph66%29.95 "Hg10 mi
6:53 am42 °FSunny.5 mph85%29.96 "Hg10 mi
5:53 am42 °FClear.5 mph79%29.95 "Hg10 mi
4:53 am43 °FClear.6 mph82%29.94 "Hg10 mi
3:53 am44 °FClear.3 mph85%29.93 "Hg10 mi
2:53 am44 °FClear.5 mph89%29.93 "Hg10 mi
1:53 am45 °FClear.3 mph90%29.94 "Hg10 mi
Weather by CustomWeather, © 2019

See weather overview